Starlink 30854

operational
NORAD ID: 58244 Int'l Des: 2023-171 Owner: SPXS Country: US Constellation: starlink
LEOCIRCULAR

关于 Starlink 30854

正在加载描述...

实时位置

正在加载3D地球...

即将过境

高度历史

Altitude vs Time

uPlot chart will show altitude changes over time

两行轨道根数

1 58244U 23171Q 25303.60901733 .00001913 00000-0 15662-3 0 9996
2 58244 43.0020 274.0346 0001138 269.6179 90.4533 15.02537039110149
Epoch: Oct 30, 2025 • Age: 27 hours

当前状态

高度 571.4 km
速度 7.58 km/s
星下点 -42.46°S, 110.36°W
发射日期 Nov 8, 2023
运行时间 1.9 years
类型 internet

技术详情

分类 Payload
质量 730.00 kg
干质量 700.00 kg
总质量 730.00 kg
长度 0.30 m
直径 4.10 m
跨度 29.00 m
形状 Box + pan
制造商 SPXS
平台类型 Starlink V2M
阶段状态 In Orbit
所有者/国家 SPXS/US

大型星座

Loading constellations...